Regional Weather Roundup
Issued by NWS

Home | Current Version | Previous Version | Graphics & Text | Print | Product List | Glossary On
Versions: 1 2 3 4 5 6 7 8 9 10 11 12 13 14 15 16 17 18 19 20 21 22 23 24 25 26 27 28 29 30 31 32 33 34 35 36 37 38 39 40 41 42 43 44 45 46 47 48 49 50
000
ASUS43 KFSD 201210
RWRSD

WEATHER ROUNDUP FOR SOUTH DAKOTA
NATIONAL WEATHER SERVICE SIOUX FALLS SD
700 AM CDT SUN MAY 20 2018

NOTE: "FAIR" INDICATES FEW OR NO CLOUDS BELOW 12,000 FEET WITH NO
SIGNIFICANT WEATHER AND/OR OBSTRUCTIONS TO VISIBILITY.


SDZ001>005-009-010-012>017-201300-
NORTHWEST AND NORTH CENTRAL SOUTH DAKOTA

CITY           SKY/WX    TMP DP  RH WIND       PRES   REMARKS
BUFFALO          N/A     42  32  67 CALM      30.18
FAITH            N/A     39  37  92 CALM      30.25S
MOBRIDGE       CLEAR     44  40  85 N6        30.24R
$$

SDZ012>016-024>037-041>051-057-063-072>074-201300-
SOUTHWEST AND SOUTH CENTRAL SOUTH DAKOTA

CITY           SKY/WX    TMP DP  RH WIND       PRES   REMARKS
RAPID CTY ARPT CLEAR     38  32  79 CALM      30.25S
PIERRE         MOCLDY    42  38  85 E3        30.22R
CUSTER         CLEAR     33  30  88 CALM      30.24R
ELLSWORTH AFB  CLEAR     39  38  94 W6        30.24S
PHILIP         PTCLDY    39  37  92 CALM      30.24R
PINE RIDGE     PTCLDY    34  34 100 CALM      30.25R FOG
SPEARFISH      FAIR      36  34  93 SE6       30.24S
WINNER         FAIR      42  34  73 NW3       30.22R
$$

SDZ004>011-016>023-039-040-201300-
NORTHEAST SOUTH DAKOTA

CITY           SKY/WX    TMP DP  RH WIND       PRES   REMARKS
ABERDEEN       PTCLDY    43  37  79 N3        30.25R
WATERTOWN      CLEAR     42  38  85 N5        30.21S
BROOKINGS      CLEAR     46  39  76 NE9       30.21R
SISSETON         N/A     41  36  82 CALM      30.24S
$$

SDZ017-020-022-023-036>040-048>070-201300-
SOUTHEAST SOUTH DAKOTA

CITY           SKY/WX    TMP DP  RH WIND       PRES   REMARKS
SIOUX FALLS    CLOUDY    49  40  71 NE15      30.18R
HURON          CLEAR     42  38  85 CALM      30.23R
CHAMBERLAIN    CLEAR     48  39  72 NE6       30.21R
MITCHELL       CLOUDY    49  42  77 NE13      30.21R
YANKTON        CLOUDY    51  46  83 NE10      30.16R
$$

ABBREVIATIONS USED IN REMARKS
   TC - TEMPERATURE IN CELSIUS
  WCI - WIND CHILL INDEX
   HX - HEAT INDEX
  VSB - VISIBILITY





USA.gov is the U.S. government's official web portal to all federal, state and local government web resources and services.